Skip Page Navigation
NASA JPL Caltech
NASA Logo - Jet Propulsion Laboratory + View the NASA Portal
+ Center for Near-Earth Object Studies
JPL Home Earth Solar System Stars & Galaxies Technology
JPL Solar System Dynamics
BODIES ORBITS EPHEMERIDES TOOLS PHYSICAL DATA DISCOVERY FAQ SITE MAP
IMPORTANT: The SSD Announcement email list is now available. Major changes are coming in the near future, including possible hostname and/or URL changes. To be notified of such changes, subscribe to this email list.

Please visit this page for more details.


JPL Small-Body Database Browser
Search: [ help ]  
34417 (2000 RE105)
Classification: Main-belt Asteroid          SPK-ID: 2034417
Ephemeris | Orbit Diagram | Orbital Elements | Mission Design | Physical Parameters | Discovery Circumstances ]

[ show orbit diagram ]
Orbital Elements at Epoch 2458600.5 (2019-Apr-27.0) TDB
Reference: JPL 26 (heliocentric ecliptic J2000)
 Element Value Uncertainty (1-sigma)   Units 
e .1439425705423028 4.0203e-08  
a 2.68592260871699 1.4641e-08 au
q 2.299304004140579 1.0743e-07 au
i 11.79841788437787 4.8169e-06 deg
node 288.1038199899705 2.3869e-05 deg
peri 345.4539553051805 3.0103e-05 deg
M 172.681070392592 1.8505e-05 deg
tp 2457829.275352871415
(2017-Mar-16.77535287)
8.2565e-05 TDB
period 1607.824600201236
4.40
1.3146e-05
3.599e-08
d
yr
n .2239050204574194 1.8307e-09 deg/d
Q 3.072541213293401 1.6748e-08 au
  Orbit Determination Parameters
   # obs. used (total)      1174  
   data-arc span      8644 days (23.67 yr)  
   first obs. used      1995-06-03  
   last obs. used      2019-02-01  
   planetary ephem.      DE431  
   SB-pert. ephem.      SB431-N16  
   condition code      0  
   norm. resid. RMS      .50291  
   source      ORB  
   producer      Otto Matic  
   solution date      2019-Jul-13 01:41:58  

Additional Information
 Earth MOID = 1.28429 au 
 Jupiter MOID = 2.0788 au 
 T_jup = 3.329 
[ show covariance matrix ]

Ephemeris | Orbit Diagram | Orbital Elements | Mission Design | Physical Parameters | Discovery Circumstances ]

Physical Parameter Table
Parameter Symbol Value Units Sigma Reference Notes
absolute magnitude H 13.9   n/a MPO431888  
diameter diameter 4.541 km 0.284 urn:nasa:pds:neowise_diameters_albedos::2.0[mainbelt] (http://adsabs.harvard.edu/abs/2011ApJ...741...68M)  
geometric albedo albedo 0.196   0.039 urn:nasa:pds:neowise_diameters_albedos::2.0[mainbelt] (http://adsabs.harvard.edu/abs/2011ApJ...741...68M)  

34417 (2000 RE105)          Discovered 2000-Sep-07 by LINEAR at Socorro
Reference: 20020128/Numbers.arcLast Updated: 2004-04-19

Alternate Designations
 2000 RE105 = 1995 LN 
Ephemeris | Orbit Diagram | Orbital Elements | Mission Design | Physical Parameters | Discovery Circumstances ]
ABOUT SSD CREDITS/AWARDS PRIVACY/COPYRIGHT GLOSSARY LINKS
FirstGov 2019-Oct-14 17:05 UT
(server date/time)  
NASA Home Page
Site Manager:   Ryan S. Park
Webmaster  Alan B. Chamberlin